Location: Pasadena-CA
(34.1440°N, 118.1100°W)
Time: 05:36:45
(UTC-07:00)

NOAA 19 - Pass Details

Date: 02 July 2022
Orbit: 840 x 861 km, 99.1° (Epoch: 15 August)

Event Time Altitude Azimuth Distance (km) Brightness Sun altitude
Rises 20:29:54 0° 175° (S) 3,416 8.0 -4.7°
Reaches altitude 10° 20:32:19 10° 180° (S) 2,481 7.3 -5.2°
Maximum altitude 20:37:44 58° 258° (WSW) 990 5.9 -6.1°
Drops below altitude 10° 20:43:09 10° 338° (NNW) 2,484 8.6 -7.0°
Sets 20:45:34 0° 342° (NNW) 3,420 9.3 -7.4°
